This is the latest recevied weather packets stored in our database for station/object KQ4KX. If no packets are shown the sender has not sent any weather packets the latest 10 day(s).
| Time | Temp. | Humidity | Pressure | Rain* | Wind** | Luminosity | Snow |
|---|---|---|---|---|---|---|---|
| 1778164025 | 28.33° C | 65% | 1016.6 hPa | 0 mm | - | - | - |
| 1778163694 | 27.78° C | 67% | 1016.6 hPa | 0 mm | - | - | - |
| 1778163394 | 27.78° C | 68% | 1016.6 hPa | 0 mm | - | - | - |
| 1778162464 | 27.22° C | 67% | 1016.7 hPa | 0 mm | - | - | - |
| 1778162164 | 27.22° C | 68% | 1016.7 hPa | 0 mm | - | - | - |
| 1778161834 | 26.67° C | 73% | 1016.8 hPa | 0 mm | - | - | - |
| 1778161269 | 26.11° C | 75% | 1016.8 hPa | 0 mm | - | - | - |
| 1778161174 | 26.11° C | 75% | 1016.8 hPa | 0 mm | - | - | - |
| 1778160874 | 26.11° C | 74% | 1016.8 hPa | 0 mm | - | - | - |
| 1778159944 | 25° C | 75% | 1016.6 hPa | 0 mm | - | - | - |
| 1778159615 | 25° C | 76% | 1016.5 hPa | 0 mm | - | - | - |
| 1778159314 | 25° C | 78% | 1016.5 hPa | 0 mm | - | - | - |
| 1778158324 | 24.44° C | 80% | 1016.3 hPa | 0 mm | - | - | - |
| 1778157997 | 23.89° C | 81% | 1016.4 hPa | 0 mm | - | - | - |
| 1778157694 | 23.89° C | 82% | 1016.4 hPa | 0 mm | - | - | - |
| 1778155774 | 22.22° C | 87% | 1016.3 hPa | 0 mm | - | - | - |
| 1778155474 | 22.22° C | 88% | 1016.4 hPa | 0 mm | - | - | - |
| 1778154546 | 22.22° C | 88% | 1016.1 hPa | 0 mm | - | - | - |
| 1778154214 | 22.22° C | 88% | 1016.2 hPa | 0 mm | - | - | - |
| 1778153914 | 22.22° C | 88% | 1016.1 hPa | 0 mm | - | - | - |
| 1778152925 | 22.22° C | 88% | 1016.1 hPa | 0 mm | - | - | - |
| 1778152625 | 22.22° C | 88% | 1016 hPa | 0 mm | - | - | - |
| 1778152294 | 22.22° C | 88% | 1015.8 hPa | 0 mm | - | - | - |
| 1778151994 | 22.22° C | 87% | 1015.9 hPa | 0 mm | - | - | - |
| 1778151694 | 22.22° C | 87% | 1015.7 hPa | 0 mm | - | - | - |
* Rain latest hour (hover to see other rain measurements)
** Current wind speed in m/s (hover to see current wind gust speed)